FENGYUN 1C DEB

Satellite information

Favourite Embed

Satellite Type and Status

DEBRISIN ORBIT

Key statistics

Satellite FENGYUN 1C DEB at a glance.

Uptime

9553

Days in orbit

Revolutions

≈ 14.3

Per day

Orbit

SSO

Sun Synchronous Orbit

Inclination

98.4

Latest

Satellite identification and parameters

Extended collection of information and parameters for FENGYUN 1C DEB.

Object identification

Identified? True

Debris? True

Object name: FENGYUN 1C DEB

International designator: 1999-025RH

Object number (NORAD): 30104

Object ID (CCSDS): 30104

Country: PEOPLES REPUBLIC OF CHINA (PRC)

Current information (Y/N): Y

RCS size: SMALL

Orbital parameters

Period: 101.048 minutes

Inclination: 98.3754 deg

SMA: 7186.394 km

Apoapsis: 861.096 km

Periapsis: 755.423 km

RAAN: 29.9472 deg

Eccentricy: 0.0073523

Argument of periapsis: 221.0206 deg

Mean anomaly: 200.7568 deg

Mean motion: 14.25070081 rev/day

Mean motion (dot): 0.00001025 rev/day2

B* drag term: 0.00044234 1/REarth

Two-line elements (TLE)

Creation date: July 4, 2025, 6:39 p.m.

Reference frame: TEME

Reference center: EARTH

Epoch: July 4, 2025, 12:32 p.m. UTC

TLE line 0: 0 FENGYUN 1C DEB

TLE line 1: 1 30104U 99025RH 25185.52272163 .00001025 00000-0 44234-3 0 9990

TLE line 2: 2 30104 98.3754 29.9472 0073523 221.0206 200.7568 14.25070081955962

Live tracking on map

Real-time ground track for satellite FENGYUN 1C DEB.

In-orbit conjunctions

A list of the most updated potential collisions computed for object FENGYUN 1C DEB.

Target Orbit TCA Probability of collision Miss distance Type
CZ-6A DEB LEO 2024-11-13 08:51:07 0.0009075974 232.0 (m) DEBRIS
METEOR 2-8 DEB LEO 2024-11-10 21:13:12 0.0006865257 166.0 (m) DEBRIS
ARIANE 1 DEB SSO 2024-09-24 07:00:27 0.001644923 36.0 (m) DEBRIS
CZ-2D DEB SSO 2024-07-16 12:13:36 0.0001170273 88.0 (m) DEBRIS

Associated space launch

Chinese polar orbiting meteorological satellite

FENGYUN 1C DEB was lifted into orbit during the mission ‘Long March 4B | Feng Yun 1C’, on board a Long March 4B space rocket.

The launch took place on May 10, 1999, 1:33 a.m. from Launch Complex 7.

For more information about the launch, click the button.

Launch to space Long March 4B | Feng Yun 1C
Long March 4B | Feng Yun 1C

Agency: N/A

Status: Launch Successful

Launch date: May 10, 1999, 1:33 a.m. UTC

Rocket: Long March 4B

Launch pad: Launch Complex 7

Location: Taiyuan Satellite Launch Center, People's Republic of China

...

Latest news about this satellite

There are no fresh news available about this satellite. Check back as we update our databases every day.


Newsletter sign-up

Weekly statistics, charts and insights to help you stay on top of the space industry.